Tampico, México

6:04 PM CDT en Septiembre 18, 2018 (GMT -0500)
Gen Francisco Javier Mina

Tiempo Historia de MMTM - Junio, 2018

Change the Weather History Date:

Miércoles, Junio 13, 2018

  Actual Average Record
Temperature  
Temperatura media 80 ° F -  
Temperatura máxima 88 ° F 88 ° F 99 ° F (2016)
Temperatura mínima 72 ° F 73 ° F 72 ° F (2018)
Cooling Degree Days 15    
Growing Degree Days 30 (Base 50)    
Moisture  
Punto de rocío 74 ° F    
Average Humidity 81    
Maximum Humidity 100    
Minimum Humidity 53    
Precipitación  
Precipitación 0.28 pul 0.17 pul - ()
Presión al nivel del mar  
Presión al nivel del mar 29.94 pul    
Viento  
Velocidad del viento 3 mph ()    
Velocidad máxima del viento 11 mph    
Max Gust Speed -    
Visibilidad 8.3 Millas    
Eventos Lluvia    
Averages and records for this station are not official NWS values.
T = Trace of Precipitation, MM = Missing Value Source: Averaged Metar Reports

Daily Weather History Graph

Daily Weather History Graph

Search for Another Location

Airport or City:

Astronomía

Jun. 13, 2018 Salida Puesta
Hora real 6:47 AM CDT 8:16 PM CDT
Crepúsculo civil 6:21 AM CDT 8:41 PM CDT
Crepúsculo náutico 5:52 AM CDT 9:11 PM CDT
Crepúsculo astronómico 5:20 AM CDT 9:42 PM CDT
Luna 6:40 AM CDT (6/13) 8:19 PM CDT (6/13)
Horas de luz 14h 19m
Horas de luz
13h 29m
Creciente menguante, 0% of the Moon is Illuminated
Jun 13
Creciente menguante
Jun 13
Nueva
Jun 20
Cuarto creciente
Jun 27
Luna llena
Jul 6
Cuarto menguante

Hourly Weather History & Observations

Hora (CDT) Temp. Índice de calor Punto de rocío Humedad Presión Visibilidad Wind Dir Velocidad del viento Velocidad de ráfagas Precip Eventos Condiciones
12:40 AM 74 ° F - 73 ° F 96% 29.98 pul 5 mi Oeste 4.5 mph - - Lluvia Lluvia débil
3:40 AM 74 ° F - 74 ° F 100% 29.96 pul 6 mi Norte 4.5 mph - -   Parcialmente nublado
4:55 AM 73.4 ° F - 73.4 ° F 100% 29.91 pul 5.0 mi Norte - - N/A   Muy nublado
6:40 AM 73 ° F - 72 ° F 95% 29.94 pul 11 mi NNE 2.2 mph - -   Parcialmente nublado
6:44 AM 73.4 ° F - 73.4 ° F 100% 29.93 pul 7.0 mi Sin viento Sin viento - N/A   Muy nublado
7:51 AM 75.2 ° F - 73.4 ° F 94% 29.91 pul 7.0 mi Sin viento Sin viento - N/A   Muy nublado
8:50 AM 77.0 ° F - 75.2 ° F 94% 29.94 pul 7.0 mi Norte - - N/A   Muy nublado
9:40 AM 81 ° F - 70 ° F 61% 29.99 pul 14 mi NE 4.5 mph - -   Nubes dispersas
9:49 AM 78.8 ° F - 75.2 ° F 89% 29.95 pul 7.0 mi Norte - - N/A   Muy nublado
10:44 AM 82.4 ° F 89.5 ° F 75.2 ° F 79% 29.96 pul 7.0 mi Sin viento Sin viento - N/A   Muy nublado
11:45 AM 82.4 ° F 89.5 ° F 75.2 ° F 79% 29.97 pul 7.0 mi Norte - - N/A   Muy nublado
12:40 PM 87 ° F - 72 ° F 53% 30.00 pul 15 mi NE 2.2 mph - -   Nubes dispersas
12:40 PM 86.0 ° F 95.1 ° F 75.2 ° F 70% 29.98 pul 8.0 mi Norte - - N/A   Muy nublado
1:46 PM 84.2 ° F 92.3 ° F 75.2 ° F 74% 29.94 pul 8.0 mi Norte - - N/A   Muy nublado
2:41 PM 78.8 ° F - 73.4 ° F 83% 29.94 pul 8.0 mi Norte - - N/A   Muy nublado
3:44 PM 82.4 ° F 88.2 ° F 73.4 ° F 74% 29.92 pul 8.0 mi Norte - - N/A   Muy nublado
3:45 PM 85 ° F - 73 ° F 59% 29.96 pul 15 mi Este 11.2 mph - -   Nubes dispersas
4:44 PM 82.4 ° F 88.2 ° F 73.4 ° F 74% 29.92 pul 8.0 mi Norte - - N/A   Muy nublado
5:41 PM 80.6 ° F 85.4 ° F 73.4 ° F 79% 29.92 pul 8.0 mi Norte - - N/A   Muy nublado
6:42 PM 78.8 ° F - 73.4 ° F 83% 29.86 pul 8.0 mi Norte - - N/A   Muy nublado
6:45 PM 82 ° F - 73 ° F 67% 29.94 pul 12 mi Este 8.9 mph - -   Muy nublado
7:47 PM 78.8 ° F - 73.4 ° F 83% 29.90 pul 7.0 mi Norte - - N/A   Muy nublado
8:44 PM 80.6 ° F 85.4 ° F 73.4 ° F 79% 29.92 pul 7.0 mi Norte - - N/A   Muy nublado
9:42 PM 78.8 ° F - 73.4 ° F 83% 29.93 pul 7.0 mi Norte - - N/A   Muy nublado
9:45 PM 80 ° F - 74 ° F 78% 29.97 pul 6 mi SO 6.7 mph - -   Parcialmente nublado
10:42 PM 78.8 ° F - 73.4 ° F 83% 29.97 pul 7.0 mi Sin viento Sin viento - N/A   Muy nublado